Regional Weather Roundup
Issued by NWS Wilmington, NC

Home | Current Version | Previous Version | Text Only | Print | Product List | Glossary On
Versions: 1 2 3 4 5 6 7 8 9 10 11 12 13 14 15 16 17 18 19 20 21 22 23 24 25 26 27 28 29 30 31 32 33 34 35 36 37 38 39 40 41 42 43 44 45 46 47 48 49 50
000
ASUS42 KILM 230510
RWRILM
RWRILM
REGIONAL HOURLY WEATHER ROUNDUP
NATIONAL WEATHER SERVICE WILMINGTON NC
100 AM EDT SAT AUG 23 2014

NOTE: "FAIR" INDICATES FEW OR NO CLOUDS BELOW 12,000 FEET WITH NO
SIGNIFICANT WEATHER AND/OR OBSTRUCTIONS TO VISIBILITY.

...............WFO WILMINGTON COUNTY WARNING AREA...............

......COASTAL NC AND SC COUNTIES......

CITY           SKY/WX    TMP DP  RH WIND       PRES   REMARKS
WILMINGTON     CLOUDY    76  73  91 E3        29.95S
SOUTHPORT      PTCLDY    75  74  95 CALM      29.94F
N MYRTLE BEACH PTCLDY    84  79  85 S7        29.94F HX  96
MYRTLE BEACH   CLEAR     84  79  84 SW6       29.94F HX  96

......INLAND NC AND SC COUNTIES.......

CITY           SKY/WX    TMP DP  RH WIND       PRES   REMARKS
LUMBERTON      CLEAR     76  72  87 SE3       29.95F
ELIZABETHTOWN  CLEAR     74  72  92 CALM      29.95F
WHITEVILLE     CLEAR     76  72  87 CALM      29.95S
FLORENCE       CLEAR     80  75  84 CALM      29.94F
DARLINGTON     PTCLDY    77  72  83 NE6       29.96S

....................REST OF NORTH CAROLINA......................

.........EASTERN NC.........

CITY           SKY/WX    TMP DP  RH WIND       PRES   REMARKS
CAPE HATTERAS  MOCLDY    75  73  93 NE3       29.94F
JACKSONVILLE   MOCLDY    73  70  88 CALM      29.96F
MOREHEAD CITY  MOCLDY    79  74  84 N5        29.94F
KENANSVILLE    PTCLDY    72  70  95 CALM      29.97F
NEW BERN       MOCLDY    77  74  90 W3        29.96F
ELIZABETH CITY PTCLDY    75  72  90 N7        29.96S

.........CENTRAL NC.........

CITY           SKY/WX    TMP DP  RH WIND       PRES   REMARKS
RALEIGH DURHAM CLOUDY    76  73  91 CALM      29.97F
ROCKY MOUNT    MOCLDY    75  73  93 CALM      29.96F
ROANOKE RAPIDS NOT AVBL
FAYETTEVILLE   CLEAR     76  70  82 CALM      29.95F
HOFFMAN        PTCLDY    76  71  84 E3        29.97F

.........WESTERN NC.........

CITY           SKY/WX    TMP DP  RH WIND       PRES   REMARKS
CHARLOTTE      CLOUDY    78  71  79 NE6       30.00S
GREENSBORO     CLOUDY    79  72  79 W6        29.98F
HICKORY        NOT AVBL
BOONE          NOT AVBL
ASHEVILLE      NOT AVBL

.....................REST OF SOUTH CAROLINA.....................

.........EASTERN SC.........

CITY           SKY/WX    TMP DP  RH WIND       PRES   REMARKS
CHARLESTON     CLEAR     84  78  82 SW7       29.94F HX  95
BEAUFORT MCAS  CLEAR     83  77  82 W6        29.95F HX  92
HILTON HEAD    NOT AVBL

.........CENTRAL SC.........

CITY           SKY/WX    TMP DP  RH WIND       PRES   REMARKS
COLUMBIA       CLEAR     80  73  79 CALM      29.95S
ORANGEBURG     CLEAR     78  74  87 CALM      29.95F
SUMTER SHAW    CLEAR     81  71  73 SW3       29.94S

.........WESTERN SC.........

CITY           SKY/WX    TMP DP  RH WIND       PRES   REMARKS
GREENVILLE     NOT AVBL
ROCK HILL      PTCLDY    78  72  81 CALM      29.99S
ANDERSON       CLEAR     78  70  76 NW5       30.00S
CLEMSON        NOT AVBL
GREENWOOD      PTCLDY    81  68  64 W3        29.99F


...................COASTAL AND OFFSHORE REPORTS..................

................LOCAL PIERS AND NC RESERVE................


STATION/POSITION TIME  SKY/WX   TEMP    WIND        PRES    VSBY
                                AIR SEA DIR/SP/G
                 (UTC)          (F)     (DEG/KT/KT) (MB)    (MI)
JOHNY MRCER PIER 0500            80 84  180/  5/  9 1013.4F
NC RESRV MASNBRO 0400            74     240/  2     1013.0S
OCEAN CREST PIER 0500            83 85  170/  5/  5 1013.1F
SPRINGMAID  PIER 0500            84 84  210/ 10/ 11 1013.7F


................COASTAL AND OFFSHORE BUOYS................


STATION/POSITION TIME  SKY/WX   TEMP    WIND        PRES    VSBY
                                AIR SEA DIR/SP/G
                 (UTC)          (F)     (DEG/KT/KT) (MB)    (MI)
DIMNDSHOAL 41025 0500            78     330/  6/  8 1013.7F
WVE H/P(F/S)=  2/ 8 WND WVE H/P(F/S)=  2/ 3 SWL H/P/D(F/S/D)=  2/ 40/ 8

CAPE LOOKOUT     0400            83     360/  6/  7 1013.7F
ONSLOW BAY 41036 0400            82 83  290/ 12/ 14 1013.1F
5 WRITEBCH 41038 0500            77 83  330/ 16/ 17   N/A
MASONBORO  41110 0500               83                N/A
WVE H/P(F/S)=  2/ 3 WND WVE H/P(F/S)=  2/ 3

WILM HARBR 41108 0500               85                N/A
WVE H/P(F/S)=  1/ 5 WND WVE H/P(F/S)=  2/ 5

27WRITEBCH 41037 0400            78 83  260/ 14/ 16 1013.7F
FRYING PAN 41013 NOT AVBL
SUNST NRSH 41024 0400            83     130/  8/ 10 1014.2
CAPRS NRSH 41029 0400            86     230/ 10/ 12   N/A
EDISTO     41004 0500            85 85  210/ 10/ 12 1013.8F


..........OFFSHORE BUOYS BEYOND 100 NM OFFSHORE...........
.....IN A TRIANGLE---HAT TO BERMUDA TO BAHAMAS TO HAT.....


STATION/POSITION TIME  SKY/WX   TEMP    WIND        PRES    VSBY
                                AIR SEA DIR/SP/G
                 (UTC)          (F)     (DEG/KT/KT) (MB)    (MI)
150E HAT   41001 NOT AVBL
W BERMUDA  41048 0432            81 81  240/ 16/ 19 1013.0F
WVE H/P(F/S)=  4/ 5 WND WVE H/P(F/S)=  3/ 5 SWL H/P/D(F/S/D)=  2/120/10

ATLANTIC S 41049 0406            84 86  140/  8/ 10 1016.7F
WVE H/P(F/S)=  5/ 9 WND WVE H/P(F/S)=  2/ 4 SWL H/P/D(F/S/D)=  5/140/ 9

E BAHAMAS  41046 0358            81 85   90/ 16/ 21 1013.5F
WVE H/P(F/S)=  8/10 WND WVE H/P(F/S)=  5/ 7 SWL H/P/D(F/S/D)=  7/130/10

NE BAHAMAS 41047 0427            83 84   90/  8/ 10 1016.4F
WVE H/P(F/S)=  3/ 7 WND WVE H/P(F/S)=  2/ 4 SWL H/P/D(F/S/D)=  3/130/ 7

120E CANVRL41010 0500            84 86  180/  6/  8 1016.4F
WVE H/P(F/S)=  2/ 9 SWL H/P/D(F/S/D)=  2/ 90/ 9


END



USA.gov is the U.S. government's official web portal to all federal, state and local government web resources and services.